Printer-friendly version

IAU Minor Planet Center

Minor Planet Center

MPEC 2006-T68 : 2006 TS7

The following Minor Planet Electronic Circular may be linked-to from your own Web pages, but must not otherwise be redistributed electronically.


Read MPEC 2006-T67 Read MPEC 2006-T69


M.P.E.C. 2006-T68                                Issued 2006 Oct. 13, 14:17 UT

     The Minor Planet Electronic Circulars contain information on unusual
         minor planets and routine data on comets.  They are published
   on behalf of Commission 20 of the International Astronomical Union by the
          Minor Planet Center, Smithsonian Astrophysical Observatory,
                          Cambridge, MA 02138, U.S.A.

             Prepared using the Tamkin Foundation Computer Network

                              MPC@CFA.HARVARD.EDU
          URL http://cfa-www.harvard.edu/iau/mpc.html  ISSN 1523-6714

                                   2006 TS7

Observations:
     K06T07S* C2006 10 11.23861 01 17 49.24 +22 46 17.2          18.0 R ET068644
     K06T07S  C2006 10 11.25918 01 17 42.07 +22 45 51.7          18.6 R ET068644
     K06T07S  C2006 10 11.27967 01 17 34.97 +22 45 25.5          18.6 R ET068644
     K06T07S  C2006 10 13.21958 01 06 04.44 +21 57 32.9          19.2 R ET068734
     K06T07S  C2006 10 13.22069 01 06 04.04 +21 57 31.0          19.6 R ET068734
     K06T07S  C2006 10 13.22182 01 06 03.49 +21 57 28.6          19.1 R ET068734
     K06T07S  C2006 10 13.22293 01 06 03.04 +21 57 26.7          18.8 R ET068734
     K06T07S  C2006 10 13.22405 01 06 02.62 +21 57 24.8          18.9 R ET068734
     K06T07S 5C2006 10 13.23414 01 05 59.59 +21 57 10.3          17.8 R ET068673
     K06T07S 5C2006 10 13.23935 01 05 57.46 +21 57 01.6                 ET068673
     K06T07S 5C2006 10 13.24259 01 05 56.23 +21 56 56.5                 ET068673
     K06T07S 5C2006 10 13.24421 01 05 55.52 +21 56 53.0                 ET068673

Observer details:
644 Palomar Mountain/NEAT.  Observers M. Brown, R. Bambery, K. Lawrence,
    M. Hicks, E. Helin, R. Thicksten.  1.2-m Schmidt + CCD.
673 Table Mountain Observatory, Wrightwood.  Observer J. Young.  0.61-m f/16
    Cassegrain + CCD.
734 Farpoint Observatory.  Observer G. Hug.  0.7-m reflector + CCD.

Orbital elements:
2006 TS7                                            PHA, Earth MOID = 0.0153 AU
Epoch 2006 Sept. 22.0 TT = JDT 2454000.5                MPC
M 254.08192              (2000.0)            P               Q
n   1.04750022     Peri.  300.38897     -0.96041444     -0.26946325
a   0.9602109      Node   224.08696     +0.27746868     -0.90272434
e   0.5958562      Incl.    5.82946     +0.02480386     -0.33537789
P   0.94           H   21.6           G   0.15           U   9
Residuals in seconds of arc
061011 644  0.8+  0.2-    061013 734  1.1+  0.3+    061013 673  0.4+  0.2+
061011 644  0.3-  0.2+    061013 734  0.3-  0.2-    061013 673  0.5-  0.1+
061011 644  0.5-  0.0     061013 734  0.5-  0.3-    061013 673  0.2+  0.3+
061013 734  0.6+  0.4+    061013 734  0.1-  0.3-    061013 673  0.8-  0.5-

Ephemeris:
2006 TS7                 a,e,i = 0.96, 0.60, 6                   q = 0.3881
Date    TT    R. A. (2000) Decl.     Delta      r     Elong.  Phase     V
2006 10 12    01 13.49   +22 29.2    0.217    1.209   164.7    12.6    19.4
2006 10 17    00 38.71   +19 43.1    0.179    1.170   164.3    13.3    19.0
2006 10 22    23 50.99   +14 46.4    0.149    1.129   151.9    24.6    18.9
2006 10 27    22 50.25   +06 58.8    0.130    1.085   131.9    43.0    19.0
2006 11 01    21 42.20   -02 49.1    0.124    1.038   108.2    65.3    19.5
2006 11 06    20 36.63   -12 00.0    0.133    0.989    85.1    87.2    20.3
2006 11 11    19 40.39   -18 44.0    0.153    0.937    65.4   106.1    21.3

Kyle E. Smalley              (C) Copyright 2006 MPC           M.P.E.C. 2006-T68

Read MPEC 2006-T67 Read MPEC 2006-T69


Our Web policy. Index to the CBAT/MPC/ICQ pages.


Valid HTML 4.01!